SCP
0 0 0 0 0 0 0 0 0 0 0 0 0 0 0 0 0 0 0 0 0 0 0 0 0 0 0 0 0 0 0 0 0 0 0 0 0 0 0 0 0 0 0 0
0 0 0 0 0 0 0 0 0 0 0 0 0 0 0 0 0 0 0 0 0 0 0 0 0 0 0 0 0 0 0 0 0 0 0 0 0 0 0 0 0 0 0 0
0 0 0 0 0 0 0 0 0 0 0 0 0 0 0 0 0 0 0 0 0 0 0 0 0 0 0 0 0 0 0 0 0 0 0 0 0 0 0 0 0 0 0 0
0 0 0 0 0 0 0 0 0 0 0 0 0 0 0 0 0 0 0 0 0 0 0 0 0 0 0 0 0 0 0 0 0 0 0 0 0 0 0 0 -0 -0 0 0
0 0 0 0 0 0 0 0 0 0 0 0 0 0 0 0 0 0 0 0 0 0 0 0 0 0 0 0 0 0 0 0 0 0 0 0 0 0 0 0 0 0 -0 -0
0 0 0 0 0 0 0 0 0 0 0 0 0 0 0 0 0 0 0 0 0 0 0 0 0 0 0 0 0 0 0 0 0 0 0 0 0 0 0 0 0 0 0 0
0 0 0 0 0 0 0 0 0 0 0 0 0 0 0 0 0 0 0 0 0 0 0 0 0 0 0 0 0 0 0 0 0 0 0 0 0 0 0 0 0 0 0 0
0 0 0 0 0 0 0 0 0 0 0 0 0 0 0 0 0 0 0 0 0 0 0 0 0 0 0 0 0 0 0 0 0 0 0 0 0 0 0 0 0 0 0 0
0 0 0 0 0 0 0 0 0 0 0 0 0 0 0 0 0 0 0 0 0 0 0 0 0 0 0 0 0 0 0 0 0 0 0 0 0 0 0 -0 -0 -0 0 0
0 0 0 0 0 0 0 0 0 0 0 0 0 0 0 0 0 0 0 0 0 0 0 0 0 0 0 0 0 0 0 0 0 0 0 0 0 0 -0 -0 -0 -0 -0 -0
0 0 0 0 0 0 0 0 0 0 0 0 0 0 0 0 0 0 0 0 0 0 0 0 0 0 0 0 0 0 0 0 0 0 0 0 -0 -0 -0 -0 -0 -0 -0 -0
0 0 0 0 0 0 0 0 0 0 0 0 0 0 0 0 0 0 0 0 0 0 0 0 0 0 0 0 0 0 0 0 0 0 0 0 0 0 0 0 0 0 0 -0
0 0 0 0 0 0 0 0 0 0 -0 -0 0 0 0 0 0 0 0 0 0 0 0 0 0 0 0 0 0 0 0 0 0 0 0 0 -0 -0 0 0 0 0 0 0
-0 -0 0 0 0 0 0 0 -0 -0 -0 0 -0 -0 -0 -0 -0 0 0 0 0 0 0 0 0 0 0 0 0 0 0 0 0 0 0 0 0 -0 -0 -0 -0 0 0 0
0 0 0 -0 0 0 -0 -0 -0 -0 0 -0 -0 -0 -0 -0 -0 -0 -0 0 0 0 0 0 0 0 0 0 0 0 0 0 0 0 0 0 0 0 -0 -0 -0 -0 -0 0
-0 -0 -0 -0 -0 -0 -0 -0 -0 -0 -0 -0 -0 -0 -0 -0 -0 -0 -0 -0 0 0 0 0 0 0 0 0 0 0 0 0 0 0 0 0 0 0 0 -0 -0 -0 -0 -0
-0 0 0 -0 -0 -0 -0 0 -0 -0 -0 -0 -0 -0 -0 -0 -0 -0 -0 -0 -0 0 0 0 0 0 0 0 0 0 0 0 0 0 0 0 0 0 0 0 -0 -0 -0 -0
0 -0 0 -0 -0 -0 0 -0 -0 -0 -0 -0 -0 -0 -0 -0 -0 -0 -0 -0 -0 0 0 0 0 0 0 0 0 0 0 0 0 0 0 0 0 0 0 0 0 -0 -0 -0
0 -0 -0 -0 -0 -0 -0 -0 -0 -0 -0 -0 -0 -0 -0 -0 -0 -0 -0 -0 0 0 0 0 0 0 0 0 0 0 0 0 0 0 0 0 0 0 0 0 0 0 0 -0
0 -0 -0 -0 -0 -0 -0 -0 -0 0 0 -0 -0 -0 -0 0 0 -0 -0 -0 0 0 0 0 0 0 0 0 0 0 0 0 0 0 0 0 0 0 0 0 0 0 0 0
-0 -0 -0 -0 -0 -0 0 0 -0 0 0 -0 -0 -0 -0 0 0 0 0 0 0 0 0 0 0 0 0 0 0 0 0 0 0 0 0 0 0 0 0 0 0 0 0 0
0 0 0 -0 -0 0 0 0 0 0 0 0 0 0 0 0 0 0 0 0 0 0 0 0 0 0 0 0 0 0 0 0 0 0 0 0 0 0 0 0 0 0 0 0
0 0 -0 0 0 0 0 0 0 0 0 0 0 0 0 0 0 0 0 0 0 0 0 0 0 0 0 0 0 0 0 0 0 0 0 0 0 0 0 0 0 0 0 0
0 0 0 0 0 0 0 0 0 0 0 0 0 0 0 0 0 0 0 0 0 0 0 0 0 0 0 0 0 0 0 0 0 0 0 0 0 0 0 0 0 0 0 0
0 0 -0 -0 0 0 0 0 0 0 0 0 0 0 0 0 0 0 0 0 0 0 0 0 0 0 0 0 0 0 0 0 0 0 0 0 0 0 0 0 0 0 0 0
0 0 0 0 0 0 0 0 0 0 0 0 0 0 0 0 0 0 0 0 0 0 0 0 0 0 0 0 0 0 0 0 0 0 0 0 0 0 0 0 0 0 0 0
0 0 0 0 0 0 0 0 0 0 0 0 0 0 0 0 0 0 0 0 0 0 0 0 0 0 0 0 0 0 0 0 0 0 0 0 0 0 0 0 0 0 0 0
Wind_Speed_500mb
31 32 25 30 30 34 24 34 23 38 38 46 27 30 41 41 36 39 37 33 22 12 9 15 22 26 32 37 41 44 45 46 48 50 50 55 58 61 64 63 61 57 57 54
22 23 20 35 38 34 38 35 38 41 42 38 12 34 38 50 48 43 35 28 20 10 9 19 28 32 35 39 42 43 43 44 46 50 53 59 62 63 64 63 62 60 58 57
19 6 13 18 38 35 28 30 24 27 34 30 23 22 43 46 53 49 40 32 20 5 12 21 29 34 35 37 40 41 40 43 47 52 56 59 61 64 64 65 63 61 62 59
17 15 22 13 8 15 23 31 36 35 33 13 4 9 12 27 44 45 40 32 11 1 11 19 27 31 34 35 36 38 42 45 49 52 55 58 57 61 60 61 62 63 64 61
14 20 28 34 20 16 15 20 24 34 29 12 30 25 23 25 38 48 36 19 12 5 13 21 26 29 32 35 36 37 40 45 50 52 54 56 56 61 59 60 61 60 61 63
10 12 15 7 5 4 13 17 7 11 17 32 35 16 11 33 45 38 28 19 9 3 14 20 21 24 30 34 37 39 43 45 46 47 49 49 54 58 58 57 56 59 65 67
25 21 20 17 10 6 14 6 3 6 24 44 14 2 49 45 41 35 26 15 3 7 12 15 20 25 27 32 38 40 40 39 40 43 43 45 46 54 54 59 59 65 67 72
19 20 29 3 10 15 3 6 8 21 27 28 36 49 54 47 40 30 20 9 5 6 9 15 20 24 31 35 37 38 37 37 38 41 43 46 47 55 55 59 61 66 71 80
15 11 3 6 8 18 10 19 21 32 38 45 50 50 46 41 34 24 14 9 8 11 13 18 23 28 31 35 37 36 35 37 39 40 40 45 53 51 52 61 70 72 75 82
3 7 4 5 5 9 14 23 33 40 48 53 61 49 46 37 29 20 16 14 14 14 15 19 24 29 33 35 38 35 32 35 39 41 44 48 41 48 53 61 62 66 74 76
11 3 10 8 10 20 32 44 52 47 48 52 59 51 43 34 26 21 19 16 14 14 16 20 23 27 31 35 37 37 35 37 43 46 47 47 50 47 48 51 53 57 62 62
10 21 11 16 29 37 49 54 52 52 51 48 43 46 36 32 25 21 19 17 16 17 17 21 25 26 28 33 37 41 43 45 48 46 49 48 50 51 51 49 53 54 53 55
16 25 17 42 40 44 54 48 50 50 49 51 40 34 30 32 27 23 21 20 19 19 20 22 23 22 25 32 38 42 43 45 47 48 49 51 50 52 58 59 60 62 61 62
28 36 29 43 44 47 49 50 50 48 43 40 39 35 32 31 30 25 23 21 20 20 19 19 17 19 26 31 33 36 38 42 45 47 50 51 53 52 54 59 68 74 71 71
50 25 43 56 56 53 54 56 53 49 45 42 36 34 31 32 30 27 24 23 21 18 16 15 14 18 22 27 30 34 38 42 43 45 47 50 53 55 57 59 60 66 75 75
35 26 55 70 62 61 59 54 51 49 46 44 39 35 32 30 29 27 25 24 20 17 17 16 15 18 20 23 27 32 37 40 44 47 50 52 55 57 57 58 58 60 71 79
52 42 63 65 70 66 60 52 45 50 48 42 39 36 34 32 31 28 26 25 21 18 15 14 16 18 19 22 27 31 34 37 41 45 49 51 52 55 55 55 58 59 60 70
38 55 73 79 83 70 58 49 46 46 45 42 38 36 34 31 29 29 27 25 21 16 13 12 15 16 16 20 24 28 31 35 39 43 45 48 50 52 53 54 57 60 61 67
29 49 64 71 71 64 57 51 47 44 41 39 39 37 33 31 29 27 27 24 19 13 11 13 12 12 15 19 22 25 29 32 35 39 41 43 46 49 52 54 56 59 61 64
43 52 62 72 64 55 54 47 44 43 42 41 40 38 37 34 30 28 27 22 17 14 12 11 9 11 15 17 20 23 27 30 33 35 38 41 44 46 48 50 53 56 59 61
43 54 65 66 60 49 44 44 44 45 44 39 35 35 34 34 32 27 25 21 18 14 11 9 8 10 12 14 18 22 25 28 31 33 36 38 40 42 44 47 49 52 55 57
54 60 65 60 55 51 44 41 40 40 41 41 38 36 34 33 33 29 25 19 17 14 11 7 5 7 9 14 16 19 22 25 28 30 32 35 37 40 42 44 46 49 51 53
58 59 58 54 51 49 45 41 38 37 40 41 39 35 29 26 25 23 21 19 17 13 10 6 3 5 9 13 15 17 21 23 26 28 31 33 36 37 39 42 44 47 49 52
56 54 52 49 47 47 48 45 40 37 34 35 34 31 29 28 27 24 18 18 14 11 9 6 4 6 9 11 13 16 19 22 24 26 29 32 34 36 36 39 42 45 48 49
53 52 49 48 47 45 43 44 46 44 43 42 40 34 30 27 21 20 18 16 13 10 7 5 5 6 6 8 12 15 18 20 22 24 27 30 32 34 37 40 43 46 47 49
49 46 43 40 39 41 43 46 48 50 49 47 43 39 34 27 20 20 19 17 14 11 8 7 4 0 5 10 11 14 17 19 22 24 27 30 32 35 38 40 43 47 50 52
42 38 39 40 39 38 39 41 45 47 45 41 38 37 33 27 21 21 19 18 15 13 10 8 6 5 7 11 13 16 18 19 22 25 29 33 36 38 40 43 46 50 52 54
Wind_Direction_500mb
260 257 260 269 266 278 251 247 242 258 250 259 202 198 201 198 186 181 184 189 197 219 280 323 339 343 339 341 340 340 341 341 341 345 346 345 348 348 347 347 346 343 340 338
270 265 255 263 251 249 253 257 251 254 262 253 169 191 190 190 186 185 177 179 192 213 301 330 337 341 342 342 340 341 342 342 345 347 348 350 351 349 348 350 350 347 345 342
271 344 295 259 246 248 241 242 236 234 249 273 269 200 201 194 182 173 172 181 188 200 322 325 334 337 339 341 342 341 343 345 351 351 351 353 352 351 351 352 352 354 351 347
274 297 266 254 250 238 242 253 254 263 262 283 203 100 178 182 166 158 163 166 173 265 306 327 335 335 339 340 345 343 349 351 352 353 354 353 352 351 353 351 355 358 356 352
244 255 277 291 255 190 185 260 255 236 254 175 129 103 66 137 156 164 163 164 152 228 315 330 337 340 341 344 348 353 352 353 353 353 355 354 354 352 352 352 358 357 358 355
214 244 256 240 232 202 147 267 224 212 184 162 158 183 148 149 158 149 145 153 167 306 331 337 341 347 351 352 357 358 359 353 352 356 356 355 354 355 356 354 357 357 1 4
229 238 263 253 185 124 208 252 105 192 169 167 176 258 149 147 140 144 152 150 137 350 341 352 360 2 2 6 4 1 358 353 356 359 360 354 352 358 358 359 1 3 2 6
222 226 246 126 143 206 133 39 153 137 145 132 127 129 137 144 141 139 136 120 53 22 21 17 14 13 18 14 8 3 357 358 360 3 5 2 1 4 4 4 3 2 0 7
217 218 52 328 291 296 205 158 159 147 149 147 134 133 139 138 140 137 125 104 90 67 47 32 24 21 21 15 8 4 360 3 6 8 7 8 11 8 6 7 9 6 4 6
220 188 219 78 356 240 183 151 145 149 153 150 141 143 142 142 138 133 123 108 88 70 54 43 34 27 24 15 13 9 5 9 11 11 13 14 11 12 12 12 9 7 6 7
241 151 83 68 187 156 139 138 138 142 148 148 147 146 146 142 136 126 115 102 88 73 62 54 44 35 25 18 18 18 15 17 17 17 16 15 21 21 16 19 17 13 9 10
245 193 164 170 163 156 145 143 145 148 143 145 149 144 146 135 133 127 117 106 97 88 77 63 49 38 29 24 20 18 20 21 20 19 19 18 17 20 26 24 23 21 21 17
220 184 186 157 152 154 147 149 149 150 149 146 145 144 144 138 133 128 123 118 108 92 74 64 52 38 31 27 21 20 22 23 23 23 22 21 20 17 16 24 27 25 24 22
186 154 127 154 157 165 157 150 149 146 147 148 145 145 143 139 136 131 123 114 103 88 77 66 49 36 32 27 23 25 28 28 27 27 26 25 24 22 20 17 16 19 24 23
185 199 188 167 161 157 156 151 148 148 150 147 148 147 147 142 135 130 124 111 102 96 87 75 55 44 36 30 26 27 28 29 28 27 27 27 26 25 23 22 21 20 21 24
177 173 160 160 158 160 159 158 156 154 157 154 152 150 148 144 142 130 122 119 114 110 92 75 59 51 41 35 33 31 29 26 25 26 26 25 24 24 24 24 24 22 24 21
145 144 154 155 162 164 166 166 169 162 160 160 159 156 154 151 139 134 132 127 119 105 94 80 64 52 40 37 34 33 31 27 26 26 26 25 25 25 25 23 24 23 23 24
195 183 177 174 169 165 167 170 170 167 168 166 162 160 155 149 147 141 136 127 119 112 101 86 66 49 40 39 37 34 32 29 26 26 25 24 25 24 24 24 23 22 22 23
185 179 174 175 171 169 167 169 171 172 169 167 164 157 154 154 152 147 141 133 127 130 119 90 70 53 45 41 40 35 33 30 28 27 26 25 25 24 24 23 22 22 21 21
172 173 176 174 172 172 169 171 170 170 172 168 166 164 162 160 158 155 146 142 148 148 121 98 80 58 45 41 38 33 31 28 27 26 25 24 24 24 23 22 22 22 22 22
170 172 171 170 169 170 173 173 176 176 171 173 174 169 166 163 162 160 153 157 159 151 133 114 83 58 44 41 35 31 28 24 23 24 24 24 22 21 19 19 18 18 18 17
170 168 167 168 169 169 174 177 179 176 174 171 173 175 169 172 169 165 165 172 167 164 149 129 91 52 44 44 36 32 27 24 22 22 23 23 21 18 17 15 14 13 11 11
166 167 168 170 172 173 173 178 178 182 180 179 178 176 172 178 176 175 174 173 180 176 160 152 110 60 56 47 40 34 26 19 19 20 20 19 17 16 14 11 10 8 7 7
166 168 169 170 174 177 176 173 176 178 182 177 174 177 182 182 181 186 186 191 192 178 170 171 143 97 63 40 30 25 18 13 12 12 11 8 7 8 7 6 4 2 360 359
167 167 172 175 178 180 179 175 172 175 176 177 178 178 178 179 189 197 197 198 201 176 180 180 142 92 41 16 14 12 7 4 3 3 2 0 358 358 357 355 354 353 352 351
170 175 178 182 184 183 183 184 185 183 182 182 183 187 188 187 190 193 196 201 201 198 199 205 208 291 359 353 350 349 349 349 350 351 353 352 350 348 346 345 345 344 343 343
178 182 183 183 186 191 193 194 193 192 190 192 194 194 195 200 202 195 199 204 206 210 219 231 247 275 313 334 336 334 334 337 339 342 343 342 340 339 339 338 338 337 336 335
Wind_Speed_850mb
31 32 25 30 30 34 24 34 23 38 38 46 27 30 41 41 36 39 37 33 22 12 9 15 22 26 32 37 41 44 45 46 48 50 50 55 58 61 64 63 61 57 57 54
22 23 20 35 38 34 38 35 38 41 42 38 12 34 38 50 48 43 35 28 20 10 9 19 28 32 35 39 42 43 43 44 46 50 53 59 62 63 64 63 62 60 58 57
19 6 13 18 38 35 28 30 24 27 34 30 23 22 43 46 53 49 40 32 20 5 12 21 29 34 35 37 40 41 40 43 47 52 56 59 61 64 64 65 63 61 62 59
17 15 22 13 8 15 23 31 36 35 33 13 4 9 12 27 44 45 40 32 11 1 11 19 27 31 34 35 36 38 42 45 49 52 55 58 57 61 60 61 62 63 64 61
14 20 28 34 20 16 15 20 24 34 29 12 30 25 23 25 38 48 36 19 12 5 13 21 26 29 32 35 36 37 40 45 50 52 54 56 56 61 59 60 61 60 61 63
10 12 15 7 5 4 13 17 7 11 17 32 35 16 11 33 45 38 28 19 9 3 14 20 21 24 30 34 37 39 43 45 46 47 49 49 54 58 58 57 56 59 65 67
25 21 20 17 10 6 14 6 3 6 24 44 14 2 49 45 41 35 26 15 3 7 12 15 20 25 27 32 38 40 40 39 40 43 43 45 46 54 54 59 59 65 67 72
19 20 29 3 10 15 3 6 8 21 27 28 36 49 54 47 40 30 20 9 5 6 9 15 20 24 31 35 37 38 37 37 38 41 43 46 47 55 55 59 61 66 71 80
15 11 3 6 8 18 10 19 21 32 38 45 50 50 46 41 34 24 14 9 8 11 13 18 23 28 31 35 37 36 35 37 39 40 40 45 53 51 52 61 70 72 75 82
3 7 4 5 5 9 14 23 33 40 48 53 61 49 46 37 29 20 16 14 14 14 15 19 24 29 33 35 38 35 32 35 39 41 44 48 41 48 53 61 62 66 74 76
11 3 10 8 10 20 32 44 52 47 48 52 59 51 43 34 26 21 19 16 14 14 16 20 23 27 31 35 37 37 35 37 43 46 47 47 50 47 48 51 53 57 62 62
10 21 11 16 29 37 49 54 52 52 51 48 43 46 36 32 25 21 19 17 16 17 17 21 25 26 28 33 37 41 43 45 48 46 49 48 50 51 51 49 53 54 53 55
16 25 17 42 40 44 54 48 50 50 49 51 40 34 30 32 27 23 21 20 19 19 20 22 23 22 25 32 38 42 43 45 47 48 49 51 50 52 58 59 60 62 61 62
28 36 29 43 44 47 49 50 50 48 43 40 39 35 32 31 30 25 23 21 20 20 19 19 17 19 26 31 33 36 38 42 45 47 50 51 53 52 54 59 68 74 71 71
50 25 43 56 56 53 54 56 53 49 45 42 36 34 31 32 30 27 24 23 21 18 16 15 14 18 22 27 30 34 38 42 43 45 47 50 53 55 57 59 60 66 75 75
35 26 55 70 62 61 59 54 51 49 46 44 39 35 32 30 29 27 25 24 20 17 17 16 15 18 20 23 27 32 37 40 44 47 50 52 55 57 57 58 58 60 71 79
52 42 63 65 70 66 60 52 45 50 48 42 39 36 34 32 31 28 26 25 21 18 15 14 16 18 19 22 27 31 34 37 41 45 49 51 52 55 55 55 58 59 60 70
38 55 73 79 83 70 58 49 46 46 45 42 38 36 34 31 29 29 27 25 21 16 13 12 15 16 16 20 24 28 31 35 39 43 45 48 50 52 53 54 57 60 61 67
29 49 64 71 71 64 57 51 47 44 41 39 39 37 33 31 29 27 27 24 19 13 11 13 12 12 15 19 22 25 29 32 35 39 41 43 46 49 52 54 56 59 61 64
43 52 62 72 64 55 54 47 44 43 42 41 40 38 37 34 30 28 27 22 17 14 12 11 9 11 15 17 20 23 27 30 33 35 38 41 44 46 48 50 53 56 59 61
43 54 65 66 60 49 44 44 44 45 44 39 35 35 34 34 32 27 25 21 18 14 11 9 8 10 12 14 18 22 25 28 31 33 36 38 40 42 44 47 49 52 55 57
54 60 65 60 55 51 44 41 40 40 41 41 38 36 34 33 33 29 25 19 17 14 11 7 5 7 9 14 16 19 22 25 28 30 32 35 37 40 42 44 46 49 51 53
58 59 58 54 51 49 45 41 38 37 40 41 39 35 29 26 25 23 21 19 17 13 10 6 3 5 9 13 15 17 21 23 26 28 31 33 36 37 39 42 44 47 49 52
56 54 52 49 47 47 48 45 40 37 34 35 34 31 29 28 27 24 18 18 14 11 9 6 4 6 9 11 13 16 19 22 24 26 29 32 34 36 36 39 42 45 48 49
53 52 49 48 47 45 43 44 46 44 43 42 40 34 30 27 21 20 18 16 13 10 7 5 5 6 6 8 12 15 18 20 22 24 27 30 32 34 37 40 43 46 47 49
49 46 43 40 39 41 43 46 48 50 49 47 43 39 34 27 20 20 19 17 14 11 8 7 4 0 5 10 11 14 17 19 22 24 27 30 32 35 38 40 43 47 50 52
42 38 39 40 39 38 39 41 45 47 45 41 38 37 33 27 21 21 19 18 15 13 10 8 6 5 7 11 13 16 18 19 22 25 29 33 36 38 40 43 46 50 52 54
Wind_Direction_850mb
260 257 260 269 266 278 251 247 242 258 250 259 202 198 201 198 186 181 184 189 197 219 280 323 339 343 339 341 340 340 341 341 341 345 346 345 348 348 347 347 346 343 340 338
270 265 255 263 251 249 253 257 251 254 262 253 169 191 190 190 186 185 177 179 192 213 301 330 337 341 342 342 340 341 342 342 345 347 348 350 351 349 348 350 350 347 345 342
271 344 295 259 246 248 241 242 236 234 249 273 269 200 201 194 182 173 172 181 188 200 322 325 334 337 339 341 342 341 343 345 351 351 351 353 352 351 351 352 352 354 351 347
274 297 266 254 250 238 242 253 254 263 262 283 203 100 178 182 166 158 163 166 173 265 306 327 335 335 339 340 345 343 349 351 352 353 354 353 352 351 353 351 355 358 356 352
244 255 277 291 255 190 185 260 255 236 254 175 129 103 66 137 156 164 163 164 152 228 315 330 337 340 341 344 348 353 352 353 353 353 355 354 354 352 352 352 358 357 358 355
214 244 256 240 232 202 147 267 224 212 184 162 158 183 148 149 158 149 145 153 167 306 331 337 341 347 351 352 357 358 359 353 352 356 356 355 354 355 356 354 357 357 1 4
229 238 263 253 185 124 208 252 105 192 169 167 176 258 149 147 140 144 152 150 137 350 341 352 360 2 2 6 4 1 358 353 356 359 360 354 352 358 358 359 1 3 2 6
222 226 246 126 143 206 133 39 153 137 145 132 127 129 137 144 141 139 136 120 53 22 21 17 14 13 18 14 8 3 357 358 360 3 5 2 1 4 4 4 3 2 0 7
217 218 52 328 291 296 205 158 159 147 149 147 134 133 139 138 140 137 125 104 90 67 47 32 24 21 21 15 8 4 360 3 6 8 7 8 11 8 6 7 9 6 4 6
220 188 219 78 356 240 183 151 145 149 153 150 141 143 142 142 138 133 123 108 88 70 54 43 34 27 24 15 13 9 5 9 11 11 13 14 11 12 12 12 9 7 6 7
241 151 83 68 187 156 139 138 138 142 148 148 147 146 146 142 136 126 115 102 88 73 62 54 44 35 25 18 18 18 15 17 17 17 16 15 21 21 16 19 17 13 9 10
245 193 164 170 163 156 145 143 145 148 143 145 149 144 146 135 133 127 117 106 97 88 77 63 49 38 29 24 20 18 20 21 20 19 19 18 17 20 26 24 23 21 21 17
220 184 186 157 152 154 147 149 149 150 149 146 145 144 144 138 133 128 123 118 108 92 74 64 52 38 31 27 21 20 22 23 23 23 22 21 20 17 16 24 27 25 24 22
186 154 127 154 157 165 157 150 149 146 147 148 145 145 143 139 136 131 123 114 103 88 77 66 49 36 32 27 23 25 28 28 27 27 26 25 24 22 20 17 16 19 24 23
185 199 188 167 161 157 156 151 148 148 150 147 148 147 147 142 135 130 124 111 102 96 87 75 55 44 36 30 26 27 28 29 28 27 27 27 26 25 23 22 21 20 21 24
177 173 160 160 158 160 159 158 156 154 157 154 152 150 148 144 142 130 122 119 114 110 92 75 59 51 41 35 33 31 29 26 25 26 26 25 24 24 24 24 24 22 24 21
145 144 154 155 162 164 166 166 169 162 160 160 159 156 154 151 139 134 132 127 119 105 94 80 64 52 40 37 34 33 31 27 26 26 26 25 25 25 25 23 24 23 23 24
195 183 177 174 169 165 167 170 170 167 168 166 162 160 155 149 147 141 136 127 119 112 101 86 66 49 40 39 37 34 32 29 26 26 25 24 25 24 24 24 23 22 22 23
185 179 174 175 171 169 167 169 171 172 169 167 164 157 154 154 152 147 141 133 127 130 119 90 70 53 45 41 40 35 33 30 28 27 26 25 25 24 24 23 22 22 21 21
172 173 176 174 172 172 169 171 170 170 172 168 166 164 162 160 158 155 146 142 148 148 121 98 80 58 45 41 38 33 31 28 27 26 25 24 24 24 23 22 22 22 22 22
170 172 171 170 169 170 173 173 176 176 171 173 174 169 166 163 162 160 153 157 159 151 133 114 83 58 44 41 35 31 28 24 23 24 24 24 22 21 19 19 18 18 18 17
170 168 167 168 169 169 174 177 179 176 174 171 173 175 169 172 169 165 165 172 167 164 149 129 91 52 44 44 36 32 27 24 22 22 23 23 21 18 17 15 14 13 11 11
166 167 168 170 172 173 173 178 178 182 180 179 178 176 172 178 176 175 174 173 180 176 160 152 110 60 56 47 40 34 26 19 19 20 20 19 17 16 14 11 10 8 7 7
166 168 169 170 174 177 176 173 176 178 182 177 174 177 182 182 181 186 186 191 192 178 170 171 143 97 63 40 30 25 18 13 12 12 11 8 7 8 7 6 4 2 360 359
167 167 172 175 178 180 179 175 172 175 176 177 178 178 178 179 189 197 197 198 201 176 180 180 142 92 41 16 14 12 7 4 3 3 2 0 358 358 357 355 354 353 352 351
170 175 178 182 184 183 183 184 185 183 182 182 183 187 188 187 190 193 196 201 201 198 199 205 208 291 359 353 350 349 349 349 350 351 353 352 350 348 346 345 345 344 343 343
178 182 183 183 186 191 193 194 193 192 190 192 194 194 195 200 202 195 199 204 206 210 219 231 247 275 313 334 336 334 334 337 339 342 343 342 340 339 339 338 338 337 336 335